When you browse on this site, cookies collect data to enhance your experience and personalize the content and advertising you see.
Visit our Privacy Policy to learn more. By continuing to use the site, you agree to this use of cookies and data.

Meteo orario Peresvetovo

Oggi, 4 Agosto, Martedi

Tempo Temperatura Precipitazioni Vento Pressione Umidità
00:00 +15°C° 0 mm 2 m/s 744 mm Hg 95%
01:00 +15°C° 0 mm 2 m/s 744 mm Hg 95%
02:00 +14°C° 0 mm 2 m/s 744 mm Hg 95%
03:00 +14°C° 0 mm 2 m/s 744 mm Hg 95%
04:00 +14°C° 0 mm 2 m/s 744 mm Hg 95%
05:00 +14°C° 0 mm 2 m/s 744 mm Hg 95%
06:00 +16°C° 0 mm 3 m/s 745 mm Hg 90%
07:00 +17°C° 0 mm 3 m/s 745 mm Hg 86%
08:00 +19°C° 0 mm 3 m/s 745 mm Hg 81%
09:00 +20°C° 0 mm 4 m/s 745 mm Hg 76%
10:00 +21°C° 0 mm 4 m/s 745 mm Hg 70%
11:00 +22°C° 0 mm 4 m/s 745 mm Hg 65%
12:00 +23°C° 0 mm 4 m/s 745 mm Hg 64%
13:00 +23°C° 0 mm 5 m/s 745 mm Hg 62%
14:00 +25°C° 0 mm 5 m/s 745 mm Hg 61%
15:00 +25°C° 0 mm 4 m/s 745 mm Hg 64%
16:00 +23°C° 0 mm 4 m/s 745 mm Hg 68%
17:00 +24°C° 0 mm 3 m/s 744 mm Hg 71%
18:00 +21°C° 0 mm 3 m/s 744 mm Hg 76%
19:00 +20°C° 0 mm 3 m/s 744 mm Hg 82%
20:00 +18°C° 0 mm 3 m/s 744 mm Hg 87%
21:00 +18°C° 0 mm 3 m/s 744 mm Hg 87%
22:00 +17°C° 0 mm 3 m/s 744 mm Hg 88%
23:00 +17°C° 0 mm 3 m/s 745 mm Hg 88%

Domani, 5 Agosto, Mercoledi

Tempo Temperatura Precipitazioni Vento Pressione Umidità
00:00 +16°C° 0 mm 3 m/s 745 mm Hg 88%
01:00 +16°C° 0 mm 3 m/s 745 mm Hg 89%
02:00 +16°C° 0 mm 3 m/s 745 mm Hg 89%
03:00 +16°C° 0 mm 3 m/s 745 mm Hg 88%
04:00 +16°C° 0 mm 3 m/s 745 mm Hg 88%
05:00 +14°C° 0 mm 3 m/s 745 mm Hg 87%
06:00 +17°C° 0 mm 3 m/s 745 mm Hg 84%
07:00 +18°C° 0 mm 4 m/s 745 mm Hg 81%
08:00 +20°C° 0 mm 4 m/s 745 mm Hg 78%
09:00 +21°C° 0 mm 4 m/s 745 mm Hg 74%
10:00 +23°C° 0 mm 4 m/s 746 mm Hg 70%
11:00 +25°C° 0 mm 4 m/s 746 mm Hg 66%
12:00 +26°C° 0 mm 4 m/s 746 mm Hg 64%
13:00 +27°C° 0 mm 4 m/s 746 mm Hg 62%
14:00 +27°C° 0 mm 4 m/s 746 mm Hg 60%
15:00 +27°C° 0 mm 3 m/s 746 mm Hg 64%
16:00 +27°C° 0 mm 3 m/s 746 mm Hg 68%
17:00 +26°C° 0 mm 2 m/s 746 mm Hg 73%
18:00 +25°C° 0 mm 2 m/s 746 mm Hg 77%
19:00 +23°C° 0 mm 2 m/s 746 mm Hg 82%
20:00 +20°C° 0 mm 2 m/s 746 mm Hg 87%
21:00 +20°C° 0 mm 2 m/s 747 mm Hg 88%
22:00 +19°C° 0 mm 2 m/s 747 mm Hg 89%
23:00 +19°C° 0 mm 2 m/s 747 mm Hg 90%

Dopodomani, 6 Agosto, Giovedi

Tempo Temperatura Precipitazioni Vento Pressione Umidità
00:00 +19°C° 0 mm 2 m/s 747 mm Hg 90%
01:00 +19°C° 0 mm 2 m/s 747 mm Hg 90%
02:00 +19°C° 0 mm 2 m/s 747 mm Hg 89%
03:00 +19°C° 0 mm 2 m/s 747 mm Hg 89%
04:00 +20°C° 0 mm 1 m/s 748 mm Hg 89%
05:00 +20°C° 0 mm 1 m/s 748 mm Hg 88%
06:00 +21°C° 0 mm 1 m/s 748 mm Hg 86%
07:00 +22°C° 0 mm 1 m/s 748 mm Hg 84%
08:00 +23°C° 0 mm 1 m/s 749 mm Hg 82%
09:00 +23°C° 0.1 mm 2 m/s 749 mm Hg 80%
10:00 +24°C° 0.1 mm 2 m/s 749 mm Hg 78%
11:00 +25°C° 0.1 mm 2 m/s 749 mm Hg 76%
12:00 +25°C° 0.6 mm 2 m/s 749 mm Hg 76%
13:00 +26°C° 0.6 mm 2 m/s 749 mm Hg 75%
14:00 +26°C° 0.6 mm 3 m/s 749 mm Hg 75%
15:00 +26°C° 0.3 mm 3 m/s 749 mm Hg 74%
16:00 +25°C° 0.3 mm 3 m/s 749 mm Hg 74%
17:00 +25°C° 0.3 mm 3 m/s 749 mm Hg 74%
18:00 +22°C° 0 mm 3 m/s 749 mm Hg 76%
19:00 +20°C° 0 mm 3 m/s 749 mm Hg 78%
20:00 +18°C° 0 mm 3 m/s 749 mm Hg 80%
21:00 +18°C° 0 mm 3 m/s 750 mm Hg 81%
22:00 +17°C° 0 mm 3 m/s 750 mm Hg 82%
23:00 +16°C° 0 mm 2 m/s 750 mm Hg 82%

7 Agosto, Venerdi

Tempo Temperatura Precipitazioni Vento Pressione Umidità
00:00 +15°C° 0 mm 2 m/s 750 mm Hg 84%
01:00 +15°C° 0 mm 2 m/s 750 mm Hg 85%
02:00 +14°C° 0 mm 2 m/s 750 mm Hg 86%
03:00 +14°C° 0 mm 2 m/s 750 mm Hg 87%
04:00 +14°C° 0 mm 2 m/s 751 mm Hg 88%
05:00 +14°C° 0 mm 2 m/s 751 mm Hg 89%
06:00 +16°C° 0 mm 2 m/s 751 mm Hg 84%
07:00 +17°C° 0 mm 2 m/s 751 mm Hg 79%
08:00 +19°C° 0 mm 2 m/s 751 mm Hg 74%
09:00 +20°C° 0 mm 2 m/s 751 mm Hg 69%
10:00 +22°C° 0 mm 3 m/s 751 mm Hg 64%
11:00 +24°C° 0 mm 3 m/s 752 mm Hg 58%
12:00 +24°C° 0 mm 3 m/s 751 mm Hg 58%
13:00 +25°C° 0 mm 3 m/s 751 mm Hg 58%
14:00 +25°C° 0 mm 3 m/s 751 mm Hg 59%
15:00 +24°C° 0.1 mm 3 m/s 751 mm Hg 64%
16:00 +24°C° 0.1 mm 2 m/s 750 mm Hg 70%
17:00 +23°C° 0.1 mm 2 m/s 750 mm Hg 75%
18:00 +21°C° 0 mm 2 m/s 750 mm Hg 79%
19:00 +19°C° 0 mm 2 m/s 750 mm Hg 84%
20:00 +18°C° 0 mm 2 m/s 750 mm Hg 88%
21:00 +17°C° 0 mm 2 m/s 750 mm Hg 90%
22:00 +16°C° 0 mm 2 m/s 750 mm Hg 91%
23:00 +15°C° 0 mm 2 m/s 750 mm Hg 93%

8 Agosto, Sabato

Tempo Temperatura Precipitazioni Vento Pressione Umidità
00:00 +15°C° 0 mm 1 m/s 750 mm Hg 94%
01:00 +15°C° 0 mm 1 m/s 750 mm Hg 94%
02:00 +14°C° 0 mm 1 m/s 750 mm Hg 94%
03:00 +14°C° 0 mm 1 m/s 750 mm Hg 94%
04:00 +14°C° 0 mm 1 m/s 750 mm Hg 93%
05:00 +14°C° 0 mm 1 m/s 750 mm Hg 93%
06:00 +16°C° 0 mm 1 m/s 750 mm Hg 87%
07:00 +19°C° 0 mm 1 m/s 750 mm Hg 80%
08:00 +21°C° 0 mm 1 m/s 750 mm Hg 74%
09:00 +22°C° 0.1 mm 1 m/s 750 mm Hg 69%
10:00 +23°C° 0.1 mm 2 m/s 749 mm Hg 64%
11:00 +24°C° 0.1 mm 2 m/s 749 mm Hg 59%
12:00 +24°C° 0.1 mm 2 m/s 749 mm Hg 59%
13:00 +25°C° 0.1 mm 2 m/s 748 mm Hg 58%
14:00 +25°C° 0.1 mm 2 m/s 748 mm Hg 58%
15:00 +24°C° 0.2 mm 2 m/s 748 mm Hg 62%
16:00 +24°C° 0.2 mm 2 m/s 747 mm Hg 67%
17:00 +23°C° 0.2 mm 1 m/s 747 mm Hg 71%
18:00 +22°C° 0 mm 1 m/s 747 mm Hg 75%
19:00 +20°C° 0 mm 1 m/s 747 mm Hg 79%
20:00 +18°C° 0 mm 1 m/s 747 mm Hg 84%
21:00 +18°C° 0 mm 1 m/s 747 mm Hg 84%
22:00 +16°C° 0 mm 1 m/s 746 mm Hg 85%
23:00 +15°C° 0 mm 1 m/s 746 mm Hg 86%

9 Agosto, Domenica

Tempo Temperatura Precipitazioni Vento Pressione Umidità
00:00 +15°C° 0 mm 1 m/s 746 mm Hg 87%
01:00 +15°C° 0 mm 1 m/s 746 mm Hg 88%
02:00 +14°C° 0 mm 1 m/s 746 mm Hg 88%
03:00 +14°C° 0 mm 1 m/s 746 mm Hg 90%
04:00 +14°C° 0 mm 1 m/s 746 mm Hg 91%
05:00 +14°C° 0 mm 1 m/s 745 mm Hg 92%
06:00 +16°C° 0 mm 1 m/s 745 mm Hg 87%
07:00 +18°C° 0 mm 1 m/s 745 mm Hg 83%
08:00 +20°C° 0 mm 1 m/s 745 mm Hg 78%
09:00 +21°C° 0.2 mm 1 m/s 745 mm Hg 72%
10:00 +21°C° 0.2 mm 2 m/s 745 mm Hg 66%
11:00 +23°C° 0.2 mm 2 m/s 745 mm Hg 60%
12:00 +23°C° 0.1 mm 2 m/s 745 mm Hg 59%
13:00 +24°C° 0.1 mm 2 m/s 744 mm Hg 57%
14:00 +24°C° 0.1 mm 2 m/s 744 mm Hg 56%
15:00 +23°C° 0 mm 2 m/s 744 mm Hg 59%
16:00 +23°C° 0 mm 1 m/s 743 mm Hg 63%
17:00 +23°C° 0 mm 1 m/s 743 mm Hg 67%
18:00 +21°C° 0 mm 1 m/s 743 mm Hg 71%
19:00 +19°C° 0 mm 1 m/s 743 mm Hg 76%
20:00 +16°C° 0 mm 1 m/s 743 mm Hg 80%
21:00 +16°C° 0 mm 1 m/s 743 mm Hg 81%
22:00 +15°C° 0 mm 1 m/s 743 mm Hg 81%
23:00 +15°C° 0 mm 1 m/s 743 mm Hg 82%
Mostrare altro